This demonstration page uses our WeatherBlox Daily Observations layout. Learn more.

Left ArrowRight Arrow

Hourly Observations for November 8, 2018

Temp ( °F °C ) Dew Point ( °F °C ) Humidity (%) Winds ( mph kmh ) Pressure ( in mb ) Visibility ( mi km ) Precip ( " mm )
12:57 am 00:57 Cloudy 30 -1.1 27 -2.8 88 88 SSW 5 7 30.36 1028 10 16 0.00 0.03
1:49 am 01:49 Cloudy with Light Snow 30 -1 28 -2 93 93 Calm 30.39 1029 5 8 0.00 0.00
1:57 am 01:57 Cloudy with Light Snow 30 -1.1 28 -2.2 92 92 Calm 30.35 1028 6 10 0.00 0.03
2:38 am 02:38 Cloudy with Light Snow 30 -1 27 -3 86 86 S 3 6 30.39 1029 3 4 0.00 0.00
2:47 am 02:47 Cloudy with Light Snow 30 -1 27 -3 86 86 SE 3 6 30.39 1029 2 3 0.00 0.00
3:12 am 03:12 Cloudy with Light Snow 28 -2 27 -3 93 93 E 3 6 30.39 1029 3 5 0.01 0.25
3:28 am 03:28 Cloudy with Light Snow 28 -2 27 -3 93 93 ESE 3 6 30.39 1029 2 3 0.01 0.25
3:36 am 03:36 Cloudy with Light Snow 28 -2 27 -3 93 93 ESE 3 6 30.39 1029 1 2 0.01 0.25
3:49 am 03:49 Cloudy with Light Snow 28 -2 27 -3 93 93 SE 5 7 30.39 1029 1 2 0.00 0.00
3:57 am 03:57 Cloudy with Light Snow 29 -1.7 27 -2.8 92 92 SSE 3 6 30.35 1028 2 3 0.02 0.51
4:01 am 04:01 Cloudy with Light Snow 28 -2 27 -3 93 93 SSE 3 6 30.39 1029 2 3 0.00 0.03
4:23 am 04:23 Cloudy with Light Snow 28 -2 27 -3 93 93 ESE 3 6 30.39 1029 4 6 0.00 0.00
4:38 am 04:38 Cloudy with Light Snow 28 -2 27 -3 93 93 ESE 5 7 30.39 1029 2 3 0.01 0.25
4:42 am 04:42 Cloudy with Light Snow 28 -2 27 -3 93 93 ESE 5 7 30.39 1029 2 2 0.01 0.25
4:57 am 04:57 Cloudy with Light Snow 29 -1.7 27 -2.8 92 92 SE 5 7 30.35 1028 1 2 0.01 0.25
5:07 am 05:07 Cloudy with Light Snow 28 -2 27 -3 93 93 SE 7 11 30.39 1029 1 2 0.00 0.00
5:13 am 05:13 Cloudy with Light Snow 28 -2 27 -3 93 93 SE 8 13 30.39 1029 1 2 0.00 0.03
5:36 am 05:36 Cloudy with Light Snow 28 -2 27 -3 93 93 SE 9 15 30.39 1029 1 2 0.00 0.03
5:51 am 05:51 Cloudy with Light Snow 28 -2 27 -3 93 93 SE 6 9 30.39 1029 1 1 0.01 0.25
5:57 am 05:57 Cloudy with Light Snow 29 -1.7 27 -2.8 92 92 SE 8 13 30.36 1028 1 1 0.01 0.25
6:06 am 06:06 Cloudy with Light Snow 28 -2 27 -3 93 93 SE 8 13 30.39 1029 1 2 0.00 0.03
6:17 am 06:17 Cloudy with Light Snow 28 -2 27 -3 93 93 SE 8 13 30.39 1029 1 1 0.00 0.00
6:36 am 06:36 Cloudy with Light Snow 28 -2 27 -3 93 93 undefined N/A 30.39 1029 1 2 0.00 0.03
6:47 am 06:47 Cloudy with Light Snow 28 -2 27 -3 93 93 SSE 6 9 30.39 1029 1 2 0.00 0.00
6:57 am 06:57 Cloudy with Light Snow 28 -2.2 27 -2.8 96 96 SE 6 9 30.37 1028 1 1 0.01 0.25
7:02 am 07:02 Cloudy with Light Snow 28 -2 27 -3 93 93 SSE 6 9 30.39 1029 1 2 0.00 0.03
7:12 am 07:12 Cloudy with Snow 28 -2 27 -3 93 93 SE 6 9 30.39 1029 1 1 0.00 0.03
7:26 am 07:26 Cloudy with Heavy Snow 28 -2 27 -3 93 93 SE 7 11 30.39 1029 0 0 0.00 0.03
7:37 am 07:37 Cloudy with Snow 28 -2 27 -3 93 93 SE 7 11 30.39 1029 1 1 0.00 0.03
7:57 am 07:57 Cloudy with Snow 28 -2.2 27 -2.8 96 96 SE 6 9 30.37 1029 1 1 0.00 0.03
8:06 am 08:06 Cloudy with Light Snow 28 -2 27 -3 93 93 SE 6 9 30.39 1029 1 2 0.01 0.25
8:11 am 08:11 Cloudy with Light Snow 28 -2 27 -3 93 93 SE 7 11 30.39 1029 2 3 0.00 0.00
8:18 am 08:18 Cloudy with Light Snow 28 -2 27 -3 93 93 SSE 6 9 30.39 1029 3 5 0.01 0.25
8:57 am 08:57 Cloudy with Light Snow 28 -2.2 27 -2.8 96 96 ESE 5 7 30.38 1029 7 11 0.03 0.76
9:25 am 09:25 Cloudy with Light Snow 28 -2 28 -2 100 100 SE 6 9 30.42 1030 8 13 0.00 0.00
9:36 am 09:36 Cloudy with Light Wintry Mix 28 -2 28 -2 100 100 SE 6 9 30.42 1030 8 13 0.01 0.25
9:57 am 09:57 Cloudy with Light Wintry Mix 30 -1.1 28 -2.2 92 92 ESE 6 9 30.38 1029 10 16 0.02 0.51
10:57 am 10:57 Cloudy with Light Wintry Mix 31 -0.6 29 -1.7 92 92 ESE 8 13 30.38 1029 10 16 0.01 0.25
11:57 am 11:57 Cloudy with Light Snow 30 -1.1 27 -2.8 88 88 SSE 7 11 30.37 1028 5 8 0.03 0.76
12:57 pm 12:57 Cloudy with Light Snow 30 -1.1 26 -3.3 85 85 SE 7 11 30.35 1028 9 14 0.01 0.25
1:57 pm 13:57 Cloudy 30 -1.1 26 -3.3 85 85 SSE 6 9 30.34 1027 10 16 0.00 0.03
2:57 pm 14:57 Cloudy 31 -0.6 27 -2.8 85 85 S 5 7 30.32 1027 9 14 0.01 0.25
3:57 pm 15:57 Cloudy 31 -0.6 28 -2.2 89 89 WSW 5 7 30.32 1027 9 14 0.01 0.25
4:57 pm 16:57 Cloudy with Light Snow 31 -0.6 28 -2.2 89 89 W 5 7 30.32 1027 5 8 0.01 0.25
5:11 pm 17:11 Cloudy with Light Snow 30 -1 28 -2 93 93 WSW 3 6 30.39 1029 8 13 0.00 0.00
5:57 pm 17:57 Cloudy 30 -1.1 28 -2.2 92 92 W 6 9 30.33 1027 10 16 0.00 0.03
6:53 pm 18:53 Cloudy 30 -1 27 -3 86 86 W 7 11 30.39 1029 10 16 0.00 0.00
6:57 pm 18:57 Cloudy 31 -0.6 27 -2.8 85 85 W 8 13 30.35 1028 10 16 0.00 0.00
7:26 pm 19:26 Cloudy 30 -1 27 -3 86 86 NW 13 20 30.39 1029 10 16 0.00 0.00
7:57 pm 19:57 Cloudy 29 -1.7 26 -3.3 89 89 NNW 14 22 30.37 1029 10 16 0.00 0.00
8:17 pm 20:17 Cloudy 28 -2 27 -3 93 93 NNW 13 20 30.39 1029 10 16 0.00 0.00
8:57 pm 20:57 Cloudy 26 -3.3 23 -5 88 88 NNW 15 24 30.39 1029 10 16 0.00 0.00
9:57 pm 21:57 Mostly Clear 21 -6.1 18 -7.8 88 88 NNW 8 13 30.40 1029 10 16 0.00 0.00
10:57 pm 22:57 Clear 18 -7.8 15 -9.4 88 88 NNW 3 6 30.38 1029 10 16 0.00 0.00
11:57 pm 23:57 Clear 17 -8.3 15 -9.4 92 92 WSW 3 6 30.36 1028 10 16 0.00 0.00

Powered by AerisWeather